SL-16 DEB

Satellite information

Favourite Embed

Satellite Type and Status

DEBRISIN ORBIT

Key statistics

Satellite SL-16 DEB at a glance.

Uptime

10001

Days in orbit

Revolutions

≈ 13.7

Per day

Orbit

LEO

Low Earth Orbit

Inclination

71.0

Latest

Satellite identification and parameters

Extended collection of information and parameters for SL-16 DEB.

Object identification

Identified? True

Debris? True

Object name: SL-16 DEB

International designator: 1998-045D

Object number (NORAD): 25410

Object ID (CCSDS): 25410

Country: COMMONWEALTH OF INDEPENDENT STATES (CIS)

Current information (Y/N): Y

RCS size: SMALL

Orbital parameters

Period: 104.994 minutes

Inclination: 70.9808 deg

SMA: 7372.302 km

Apoapsis: 1146.189 km

Periapsis: 842.145 km

RAAN: 43.208 deg

Eccentricy: 0.02062076

Argument of periapsis: 42.7014 deg

Mean anomaly: 68.8741 deg

Mean motion: 13.71507189 rev/day

Mean motion (dot): 0.00000102 rev/day2

B* drag term: 0.00013753487 1/REarth

Two-line elements (TLE)

Creation date: Dec. 14, 2025, 3:07 a.m.

Reference frame: TEME

Reference center: EARTH

Epoch: Dec. 13, 2025, 12:28 p.m. UTC

TLE line 0: 0 SL-16 DEB

TLE line 1: 1 25410U 98045D 25347.52009716 .00000102 00000-0 13753-3 0 9994

TLE line 2: 2 25410 70.9808 43.2080 0206208 42.7014 68.8741 13.71507189369531

Live tracking on map

Real-time ground track for satellite SL-16 DEB.

In-orbit conjunctions

A list of the most updated potential collisions computed for object SL-16 DEB.

Target Orbit TCA Probability of collision Miss distance Type
COSMOS 2310 LEO 2024-09-02 12:39:15 0.0001047026 851.0 (m) PAYLOAD
SURFSAT SSO 2024-06-18 03:51:37 0.0002807671 85.0 (m) PAYLOAD

Associated space launch

Second generation ELING satellite

SL-16 DEB was lifted into orbit during the mission ‘Zenit-2 | Tselina-2 20’, on board a Zenit-2 space rocket.

The launch took place on July 28, 1998, 9:15 a.m. from 45/1.

For more information about the launch, click the button.

Launch to space Zenit-2 | Tselina-2 20
Zenit-2 | Tselina-2 20

Agency: N/A

Status: Launch Successful

Launch date: July 28, 1998, 9:15 a.m. UTC

Rocket: Zenit-2

Launch pad: 45/1

Location: Baikonur Cosmodrome, Republic of Kazakhstan

...

Latest news about this satellite

There are no fresh news available about this satellite. Check back as we update our databases every day.


Newsletter sign-up

Weekly statistics, charts and insights to help you stay on top of the space industry.